[[{"header":{"parameterUnit":"m.s-1","parameterCategory":1,"la1":30.2991,"la2":30.254,"lo1":-89.0895,"lo2":-89.0444,"dy":0.0017,"dx":0.0017,"nx":28,"ny":28,"refTime":"2023-07-18T21:00:00:Z","depth":0,"parameterNumber":2,"parameterNumberName":"U-component_of_WINDS"},"data":[0,0,0,0,0,0,0,0,0,0,0,0,0,0,0,0,0,0,0,0,0,0,0,0,0,0,0,0,0,0,0,0,0,0,0,0,0,0,0,0,0,0,0,0,0,0,0,0,0,0,0,0,0,0,0,0,0,0,1.5823,1.5823,0,1.5833,1.5833,1.5833,1.5797,1.5796,1.5795,1.5794,1.5804,1.5805,1.5807,0,0,0,0,0,0,0,0,0,0,0,0,0,1.5768,1.5769,1.5823,1.5823,1.5823,1.5833,1.5833,1.5833,1.5797,1.5796,1.5795,1.5793,1.5804,1.5805,1.5807,0,0,0,0,0,0,0,0,0,0,0,0,0,1.5787,1.577,1.5823,1.5806,1.5805,1.5833,1.5833,1.5833,1.5798,1.5796,1.5794,1.5793,1.5803,1.5805,1.5807,1.5852,0,0,1.5813,1.5814,0,0,0,0,0,0,0,0,1.5786,1.5789,1.5808,1.5807,1.5806,1.5812,1.5818,1.584,1.5798,1.58,1.5794,1.5792,1.5808,1.581,1.5815,1.5852,1.5853,1.5813,1.5814,1.5815,1.5816,0,0,0,0,0,0,0,1.5784,1.5788,1.5827,1.5809,1.5807,1.5797,1.5798,1.5822,1.5813,1.58,1.5797,1.5799,1.5807,1.5813,1.5815,1.5853,1.5813,1.5815,1.5816,1.5817,1.5922,1.5924,0,0,0,0,0,0,1.5786,1.5787,1.5826,1.5827,1.5791,1.5799,1.58,1.5812,1.5813,1.5811,1.58,1.5797,1.5811,1.5813,1.5815,1.5865,1.5815,1.5817,1.5818,1.5921,1.5923,1.5925,0,0,0,0,0,0,1.5784,1.5789,1.5826,1.5806,1.581,1.5802,1.5815,1.5813,1.5819,1.5813,1.5811,1.5809,1.581,1.5813,1.5842,1.5865,1.5818,1.582,1.5919,1.5921,1.5924,1.5966,0,0,0,0,0,0,1.5783,1.5789,1.5807,1.5807,1.5811,1.5854,1.5817,1.5814,1.5823,1.5819,1.582,1.5819,1.5809,1.5839,1.5844,1.5866,1.5821,1.5917,1.592,1.5923,1.5962,1.5969,1.5975,0,0,0,0,0,1.5781,1.5819,1.5808,1.5813,1.5834,1.5855,1.5858,1.5845,1.5825,1.5841,1.5837,1.5819,1.5862,1.5843,1.5848,1.5871,1.5915,1.5919,1.5923,1.5959,1.5968,1.5975,0,0,0,0,0,0,1.5823,1.5819,1.5807,1.5846,1.5851,1.5849,1.587,1.5855,1.5866,1.5862,1.5845,1.5846,1.5877,1.5877,1.5856,1.5912,1.5885,1.589,1.5911,1.5919,1.5926,1.5924,1.5823,0,0,0,0,0,1.5837,1.5855,1.5851,1.5886,1.5889,1.5879,1.5888,1.5877,1.5882,1.5884,1.5882,1.5886,1.59,1.591,1.5923,1.5962,1.596,1.598,1.5987,1.5992,1.5996,1.6014,1.6022,1.5937,1.5937,1.5937,0,0,1.5866,1.5866,1.5879,1.5894,1.5897,1.5914,1.5881,1.5903,1.5915,1.5887,1.5914,1.5912,1.5916,1.595,1.5964,1.5951,1.6019,1.5997,1.6002,1.6003,1.6018,1.6026,1.6033,1.5939,1.5939,1.5938,0,0,1.5927,1.593,1.5958,1.596,1.5964,1.5957,1.5963,1.5963,1.596,1.5987,1.5965,1.5979,1.6005,1.6007,1.6012,1.607,1.6052,1.6074,1.6108,1.6125,1.6132,1.6138,1.6156,1.6163,1.6079,1.6079,1.6079,0,1.5962,1.5989,1.5974,1.5995,1.6001,1.5976,1.6002,1.6006,1.6014,1.6018,1.6002,1.6031,1.6032,1.6064,1.6078,1.6083,1.6088,1.6074,1.6132,1.6138,1.6143,1.616,1.6167,1.6081,1.6081,1.6081,1.608,0,1.603,1.6049,1.6071,1.6077,1.6086,1.611,1.6097,1.6108,1.6095,1.6089,1.6115,1.6115,1.6125,1.6132,1.6122,1.6162,1.6153,1.6135,1.6107,1.6154,1.6169,1.6176,1.6085,1.6084,1.6083,1.6082,0,0,1.612,1.6115,1.6123,1.6124,1.6125,1.6139,1.616,1.617,1.6178,1.6183,1.6199,1.622,1.6202,1.6207,1.6196,1.6212,1.6253,1.6191,1.6191,1.6201,1.6294,1.6306,1.6314,1.6242,1.6243,1.6244,1.6293,0,1.6177,1.6214,1.62,1.6237,1.6252,1.6226,1.6245,1.6246,1.624,1.6251,1.6245,1.6258,1.6236,1.6238,1.6252,1.6246,1.6272,1.6242,1.6255,1.6256,1.6253,1.6323,1.6336,1.6383,1.6299,1.6301,1.6301,0,1.625,1.6257,1.6295,1.6289,1.6295,1.6312,1.6318,1.6329,1.633,1.6324,1.6328,1.6312,1.6331,1.6304,1.6328,1.6308,1.6313,1.631,1.6311,1.6311,1.628,1.6322,1.6397,1.6404,1.6311,1.631,1.631,0,1.6308,1.6326,1.6351,1.6353,1.6348,1.636,1.6358,1.6357,1.6362,1.6367,1.637,1.6378,1.6381,1.6387,1.6373,1.6355,1.6398,1.637,1.6392,1.6392,1.6402,1.6401,1.6477,1.6408,1.6408,1.6408,1.6407,0,1.6373,1.6396,1.6376,1.6391,1.6416,1.6398,1.6423,1.6419,1.6417,1.6429,1.6408,1.642,1.6402,1.6412,1.6401,1.6421,1.6423,1.6418,1.6414,1.6419,1.6419,1.642,1.6416,1.6409,1.6409,1.6409,1.6408,0,1.6441,1.6429,1.6453,1.6445,1.6444,1.6462,1.6455,1.6467,1.6459,1.6475,1.6478,1.6465,1.6474,1.6461,1.647,1.6463,1.6489,1.6482,1.6489,1.6486,1.6508,1.6505,1.6585,1.6594,1.6522,1.6523,1.6523,0,1.6482,1.65,1.6493,1.6499,1.6498,1.651,1.6514,1.6497,1.6503,1.6502,1.6514,1.6522,1.6527,1.6544,1.6535,1.6541,1.6532,1.656,1.6533,1.6535,1.6529,1.6528,1.6528,1.6565,1.6566,1.6566,1.6567,0,1.6556,1.6548,1.6556,1.6561,1.6566,1.657,1.6571,1.6578,1.6559,1.6566,1.6575,1.6579,1.6587,1.6594,1.6597,1.6594,1.6577,1.6575,1.658,1.6584,1.6586,1.6583,1.6502,1.6573,1.6573,1.6572,1.6572,1.6572,1.661,1.6623,1.6619,1.6628,1.6626,1.6628,1.6638,1.663,1.6637,1.6642,1.6631,1.6642,1.6639,1.6641,1.6639,1.6647,1.6635,1.6643,1.6644,1.6646,1.6648,1.6586,1.6648,1.6648,1.6647,1.6647,1.6647,0,1.6681,1.6676,1.6684,1.6685,1.6691,1.6674,1.6674,1.668,1.6689,1.6688,1.6692,1.6701,1.6708,1.6698,1.6702,1.671,1.6702,1.6711,1.671,1.6709,1.666,1.6654,1.6717,1.6717,1.6717,1.6717,1.6717,1.6717,1.6718,1.6737,1.6728,1.6746,1.6741,1.6751,1.6752,1.6752,1.675,1.6761,1.6766,1.6759,1.6753,1.6756,1.676,1.6757,1.6759,1.6771,1.6765,1.6719,1.6712,1.6706,1.67,1.6772,1.6772,1.6812,1.6813,1.6813]},{"header":{"parameterUnit":"m.s-1","parameterCategory":1,"la1":30.2991,"la2":30.254,"lo1":-89.0895,"lo2":-89.0444,"dy":0.0017,"dx":0.0017,"nx":28,"ny":28,"refTime":"2023-07-18T21:00:00:Z","depth":0,"parameterNumber":3,"parameterNumberName":"V-component_of_WINDS"},"data":[0,0,0,0,0,0,0,0,0,0,0,0,0,0,0,0,0,0,0,0,0,0,0,0,0,0,0,0,0,0,0,0,0,0,0,0,0,0,0,0,0,0,0,0,0,0,0,0,0,0,0,0,0,0,0,0,0,0,0.5218,0.5218,0,0.5217,0.5217,0.5217,0.5211,0.5211,0.5211,0.5211,0.5209,0.5209,0.5209,0,0,0,0,0,0,0,0,0,0,0,0,0,0.5212,0.5212,0.5218,0.5218,0.5218,0.5217,0.5217,0.5217,0.5211,0.5211,0.5211,0.521,0.5209,0.5209,0.5209,0,0,0,0,0,0,0,0,0,0,0,0,0,0.5213,0.5212,0.5218,0.5215,0.5215,0.5217,0.5217,0.5217,0.5211,0.5211,0.5211,0.521,0.5209,0.5209,0.5209,0.5214,0,0,0.5209,0.5209,0,0,0,0,0,0,0,0,0.5213,0.5213,0.5215,0.5215,0.5215,0.5214,0.5214,0.5216,0.5211,0.5212,0.5211,0.521,0.5211,0.5211,0.5211,0.5214,0.5214,0.5209,0.5209,0.5209,0.521,0,0,0,0,0,0,0,0.5213,0.5213,0.5218,0.5215,0.5215,0.5213,0.5213,0.5215,0.5213,0.5212,0.5212,0.5212,0.521,0.5211,0.5211,0.5214,0.5209,0.5209,0.521,0.521,0.5219,0.5219,0,0,0,0,0,0,0.5213,0.5213,0.5218,0.5218,0.5213,0.5213,0.5213,0.5215,0.5213,0.5212,0.5212,0.5212,0.5211,0.5211,0.5211,0.5215,0.5209,0.521,0.521,0.5219,0.5219,0.5219,0,0,0,0,0,0,0.5213,0.5214,0.5218,0.5215,0.5216,0.5213,0.5215,0.5215,0.5215,0.5213,0.5212,0.5213,0.521,0.521,0.5213,0.5215,0.521,0.521,0.5219,0.5219,0.5219,0.5226,0,0,0,0,0,0,0.5213,0.5214,0.5217,0.5215,0.5216,0.5221,0.5215,0.5215,0.5215,0.5215,0.5213,0.5213,0.521,0.5213,0.5213,0.5215,0.521,0.5218,0.5219,0.5219,0.5226,0.5226,0.5227,0,0,0,0,0,0.5213,0.5219,0.5217,0.5218,0.522,0.5221,0.5221,0.5219,0.5216,0.5218,0.5216,0.5213,0.5215,0.5213,0.5213,0.5216,0.5218,0.5219,0.5219,0.5225,0.5226,0.5227,0,0,0,0,0,0,0.5222,0.5219,0.5217,0.5223,0.5222,0.522,0.5223,0.522,0.5221,0.522,0.5216,0.5216,0.5218,0.5217,0.5215,0.5219,0.5216,0.5216,0.522,0.5221,0.5222,0.5223,0.521,0,0,0,0,0,0.5224,0.5226,0.5224,0.5229,0.5229,0.5226,0.5227,0.5225,0.5224,0.5223,0.5222,0.522,0.522,0.5221,0.5221,0.5225,0.5224,0.5226,0.5227,0.5228,0.5229,0.5228,0.5229,0.522,0.522,0.522,0,0,0.523,0.5228,0.523,0.5231,0.523,0.5232,0.5226,0.5229,0.5229,0.5224,0.5226,0.5224,0.5222,0.5225,0.5226,0.5224,0.523,0.5228,0.5229,0.5229,0.5229,0.523,0.523,0.5221,0.5221,0.5221,0,0,0.524,0.524,0.5244,0.5243,0.5241,0.5239,0.5239,0.5237,0.5236,0.5238,0.5233,0.5233,0.5234,0.5232,0.5231,0.5238,0.5235,0.5238,0.5243,0.5243,0.5243,0.5244,0.5245,0.5246,0.5238,0.5238,0.5238,0,0.5247,0.525,0.5246,0.5248,0.5248,0.5242,0.5245,0.5244,0.5242,0.5242,0.524,0.5239,0.5237,0.5239,0.524,0.524,0.5239,0.5239,0.5244,0.5244,0.5245,0.5246,0.5246,0.5239,0.5239,0.5239,0.5239,0,0.5257,0.5259,0.5262,0.526,0.526,0.5263,0.5258,0.5258,0.5255,0.5252,0.5253,0.525,0.5249,0.5249,0.5246,0.5249,0.5247,0.5244,0.5241,0.5246,0.5247,0.5247,0.5239,0.5239,0.5239,0.5239,0,0,0.5276,0.527,0.5271,0.5269,0.5266,0.5267,0.5267,0.5266,0.5265,0.5264,0.5264,0.5263,0.5259,0.5258,0.5255,0.5255,0.5258,0.5252,0.5251,0.5252,0.526,0.5262,0.5263,0.5256,0.5256,0.5256,0.5259,0,0.5285,0.5287,0.5283,0.5285,0.5286,0.5279,0.5279,0.5277,0.5273,0.5272,0.5268,0.5268,0.5264,0.5263,0.5262,0.5258,0.526,0.5258,0.5255,0.5255,0.5256,0.5263,0.5266,0.527,0.526,0.526,0.526,0,0.5297,0.5295,0.5298,0.5292,0.5292,0.5293,0.529,0.5289,0.5285,0.5282,0.528,0.5275,0.5274,0.527,0.5268,0.5267,0.5265,0.5262,0.5262,0.5262,0.5258,0.5263,0.5271,0.5271,0.5261,0.5261,0.5261,0,0.5309,0.5307,0.5308,0.5306,0.53,0.53,0.5298,0.5293,0.5292,0.5289,0.5287,0.5284,0.5282,0.5279,0.5273,0.5271,0.5271,0.5267,0.5268,0.5268,0.5269,0.5269,0.5276,0.5268,0.5268,0.5268,0.5268,0,0.532,0.5321,0.5313,0.5313,0.5314,0.5308,0.5308,0.5305,0.5301,0.5299,0.5293,0.5292,0.5284,0.5281,0.5277,0.5275,0.5274,0.5271,0.527,0.5272,0.5272,0.5271,0.527,0.5268,0.5268,0.5268,0.5268,0,0.5333,0.5328,0.5328,0.5321,0.5319,0.532,0.5314,0.5313,0.5309,0.5307,0.5306,0.5299,0.5295,0.5289,0.5283,0.528,0.5279,0.5277,0.528,0.5279,0.5281,0.528,0.5288,0.5288,0.5279,0.5279,0.528,0,0.5341,0.5342,0.5335,0.5333,0.5331,0.5329,0.5327,0.5319,0.5317,0.5311,0.5311,0.5307,0.5303,0.5297,0.5291,0.5286,0.5284,0.5286,0.5283,0.5284,0.5283,0.5283,0.5282,0.5287,0.5288,0.5288,0.5288,0,0.5354,0.5351,0.5349,0.5344,0.5342,0.5338,0.5334,0.5333,0.5325,0.5323,0.5319,0.5316,0.5309,0.5305,0.5299,0.5295,0.5289,0.5289,0.5288,0.5291,0.5292,0.529,0.5282,0.5289,0.5289,0.5289,0.5289,0.5288,0.5365,0.5365,0.5359,0.5356,0.5351,0.5347,0.5346,0.534,0.5337,0.5331,0.5327,0.5323,0.5316,0.5307,0.5303,0.5299,0.5297,0.5297,0.5297,0.5297,0.5297,0.5293,0.5298,0.5298,0.5298,0.5298,0.5298,0,0.5377,0.5373,0.537,0.5364,0.5361,0.5355,0.535,0.5348,0.5344,0.5338,0.5334,0.5329,0.5323,0.5316,0.531,0.5308,0.5305,0.5306,0.5306,0.5305,0.53,0.5301,0.5308,0.5308,0.5308,0.5308,0.5308,0.5308,0.5383,0.5382,0.5378,0.5373,0.5368,0.5364,0.5362,0.5357,0.5352,0.5346,0.5342,0.5336,0.5329,0.5322,0.5317,0.5314,0.5312,0.5314,0.5311,0.5307,0.5306,0.5305,0.5305,0.5314,0.5314,0.5316,0.5316,0.5316]}]]